Location: Newark
(45.8667°N, 9.7333°E)
Time: 13:37:56
(UTC+00:00)

Vanguard 3 - Pass Details

Date: 24 January 2020
Orbit: 508 x 3263 km, 33.3° (Epoch: 24 February)

Event Time Altitude Azimuth Distance (km) Brightness Sun altitude
Rises 17:05:31 0° 233° (SW) 7,055 13.5 -9.0°
Reaches altitude 10° 17:10:25 10° 228° (SW) 6,154 12.8 -9.9°
Maximum altitude 17:28:36 46° 164° (SSE) 3,722 10.4 -12.9°
Enters shadow 17:41:44 14° 100° (E) 4,735 10.5 -15.1°
Drops below altitude 10° 17:42:56 10° 98° (E) 4,949 - -15.3°
Sets 17:46:21 0° 92° (E) 5,633 - -15.9°
